DW9456 Weather Reports


time (UTC)temp
F
wind
direction
speed
knots
gust
knots
rain 1hr
in
rain 24hr
in
rain mn
in
humidity
%
barometer
mb
20260509080121 55 228 3.5 4.3 0.00 0.15 0.15 97 1009.5
20260509075618 55 209 2.6 4.3 0.00 0.15 0.15 97 1009.8
20260509075116 55 232 3.5 4.3 0.00 0.15 0.15 97 1009.7
20260509074613 55 233 2.6 5.2 0.07 0.15 0.15 97 1009.2
20260509074109 55 237 2.6 4.3 0.00 0.14 0.14 97 1009.4
20260509073606 55 212 3.5 4.3 0.00 0.14 0.14 97 1009.3
20260509073102 55 244 1.7 2.6 0.00 0.14 0.14 97 1009.4
20260509072558 55 240 3.5 4.3 0.00 0.14 0.14 97 1009.4
20260509072050 55 218 3.5 5.2 0.00 0.14 0.14 97 1009.5
20260509071547 55 223 2.6 6.1 0.00 0.14 0.14 97 1009.8
20260509071044 55 241 3.5 5.2 0.05 0.14 0.14 97 1009.4
20260509070542 55 276 4.3 5.2 0.05 0.14 0.14 97 1009.7
20260509070038 55 251 3.5 5.2 0.00 0.13 0.13 97 1010.0
20260509065533 55 243 4.3 6.1 0.00 0.13 0.13 97 1010.1
20260509065030 55 240 3.5 4.3 0.07 0.13 0.13 97 1010.1
20260509064527 55 236 3.5 6.1 0.00 0.12 0.12 97 1010.4
20260509064025 55 231 4.3 6.1 0.00 0.12 0.12 97 1010.2
20260509063520 55 245 2.6 6.1 0.05 0.12 0.12 97 1010.3
20260509063018 55 234 4.3 7.0 0.05 0.12 0.12 97 1010.2
20260509062515 55 254 6.1 7.0 0.00 0.11 0.11 97 1010.2
20260509062012 55 249 5.2 7.0 0.07 0.11 0.11 97 1010.4
20260509061509 54 270 4.3 5.2 0.05 0.10 0.10 97 1010.1
20260509061007 54 271 0.0 4.3 0.05 0.10 0.10 97 1010.1
20260509060504 54 240 0.0 0.0 0.00 0.09 0.09 97 1010.2
20260509055959 55 289 6.1 9.6 0.07 0.09 0.09 97 1010.3
20260509055455 55 305 0.0 0.0 0.05 0.08 0.08 97 1010.4
20260509054951 55 330 0.0 0.0 0.05 0.08 0.08 97 1010.3
20260509054448 55 314 0.0 0.0 0.07 0.07 0.07 96 1010.3
20260509053946 55 337 0.0 0.0 0.07 0.07 0.07 96 1010.3
20260509053444 55 310 0.0 0.0 0.05 0.06 0.06 96 1010.1
20260509052941 55 328 0.0 0.0 0.05 0.06 0.06 96 1010.3
20260509052438 55 314 0.0 0.0 0.00 0.05 0.05 95 1010.0
20260509051936 55 350 0.0 0.0 0.07 0.05 0.05 95 1010.4
20260509051434 55 321 0.0 0.0 0.07 0.04 0.04 95 1010.7
20260509050931 55 312 0.0 0.0 0.12 0.04 0.04 95 1010.8
20260509050427 54 313 0.0 0.0 0.07 0.02 0.02 94 1010.4
20260509045924 55 314 0.0 0.0 0.07 0.02 0.02 94 1010.5
20260509045421 54 323 0.0 0.0 0.00 0.01 0.01 94 1010.4
20260509044918 55 306 0.0 0.0 0.05 0.01 0.01 94 1010.6
20260509044416 54 323 0.0 0.0 0.05 0.01 0.01 94 1010.6
20260509043913 54 327 0.0 0.0 0.00 0.00 0.00 93 1010.5
20260509043408 54 321 0.0 0.0 0.00 0.00 0.00 93 1010.6
20260509042904 54 327 0.0 0.0 0.00 0.00 0.00 93 1010.6
20260509042401 54 322 0.0 0.0 0.00 0.00 0.00 93 1010.7
20260509041858 54 311 0.0 0.0 0.00 0.00 0.00 93 1010.4
20260509041354 54 322 0.0 0.0 0.00 0.00 0.00 92 1010.8
20260509040853 54 317 0.0 0.0 0.00 0.00 0.00 92 1010.7
20260509040350 54 313 0.0 0.0 0.07 0.00 0.00 92 1010.7
20260509035841 54 326 0.0 0.0 0.07 0.06 0.06 92 1011.0
20260509035338 54 337 0.0 0.0 0.00 0.05 0.05 92 1010.9
20260509034834 55 352 0.0 0.0 0.00 0.05 0.05 92 1011.0
20260509034333 55 347 0.0 0.0 0.00 0.05 0.05 92 1010.9
20260509033829 54 337 0.0 0.0 0.00 0.05 0.05 91 1010.9
20260509033326 54 334 0.0 0.0 0.05 0.05 0.05 91 1011.0
20260509032823 54 330 0.0 0.0 0.05 0.05 0.05 91 1010.9
20260509032320 55 330 0.0 0.0 0.07 0.04 0.04 91 1011.0
20260509031818 55 321 0.0 0.0 0.12 0.04 0.04 91 1010.9
20260509031315 55 305 0.0 0.0 0.05 0.03 0.03 91 1011.0
20260509030813 55 294 0.0 0.0 0.00 0.02 0.02 90 1011.1
20260509030311 55 314 0.0 0.0 0.00 0.02 0.02 90 1011.1
20260509025807 55 318 0.0 0.0 0.00 0.02 0.02 90 1010.9
20260509025306 55 310 0.0 0.0 0.00 0.02 0.02 90 1011.2
20260509024758 55 283 0.0 0.0 0.00 0.02 0.02 90 1011.3
20260509024255 55 318 0.0 0.0 0.00 0.02 0.02 89 1011.1
20260509023752 55 328 0.0 0.0 0.00 0.02 0.02 89 1011.4
20260509023249 55 317 0.0 0.0 0.00 0.02 0.02 89 1011.2
20260509022745 55 333 0.0 0.0 0.00 0.02 0.02 89 1011.4
20260509022243 55 333 0.0 0.0 0.00 0.02 0.02 88 1011.4
20260509021739 55 331 0.0 0.0 0.07 0.02 0.02 88 1011.5
20260509021237 55 320 0.0 0.0 0.00 0.01 0.01 87 1011.4
20260509020734 55 311 0.0 0.0 0.00 0.01 0.01 87 1011.3
20260509020232 55 334 0.0 0.0 0.00 0.01 0.01 87 1011.5
20260509015730 55 284 0.0 0.0 0.00 0.01 0.01 86 1011.6
20260509015228 55 287 0.0 0.0 0.00 0.01 0.01 86 1011.3
20260509014724 55 321 0.0 0.0 0.00 0.01 0.01 86 1011.0
20260509014221 55 347 0.0 0.0 0.00 0.01 0.01 86 1010.7
20260509013718 56 2 0.0 0.0 0.00 0.01 0.01 86 1010.4
20260509013213 56 38 0.0 0.0 0.00 0.01 0.01 85 1010.2
20260509012710 56 341 0.0 0.0 0.00 0.01 0.01 84 1010.3
20260509012207 56 349 0.0 0.0 0.00 0.01 0.01 84 1010.7
20260509011704 56 321 0.0 0.0 0.00 0.01 0.01 84 1010.6
20260509011202 56 338 0.0 0.0 0.00 0.01 0.01 84 1010.8
20260509010659 56 309 0.0 0.0 0.00 0.01 0.01 83 1010.8
20260509010155 56 328 0.0 0.0 0.00 0.01 0.01 83 1010.3
20260509005653 56 305 0.0 0.0 0.00 0.01 0.01 83 1010.7
20260509005150 56 324 0.0 0.0 0.00 0.01 0.01 82 1010.4
20260509004645 57 333 0.0 0.0 0.00 0.01 0.01 82 1010.4
20260509004142 57 314 0.0 0.0 0.00 0.01 0.01 81 1010.6
20260509003641 57 317 0.0 2.6 0.00 0.01 0.01 82 1010.5
20260509003138 57 319 0.0 0.0 0.00 0.01 0.01 81 1010.4
20260509002635 57 354 0.0 0.0 0.00 0.01 0.01 81 1010.5
20260509002132 58 297 0.9 2.6 0.00 0.01 0.01 81 1010.5
20260509001630 58 303 0.0 0.0 0.05 0.01 0.01 81 1010.4
20260509001125 59 305 0.0 0.0 0.05 0.01 0.01 80 1010.7
20260509000624 59 314 0.0 0.0 0.00 0.00 0.00 79 1010.3
20260509000120 60 324 0.0 0.0 0.00 0.00 0.00 79 1010.3
20260508235618 60 333 0.0 0.0 0.00 0.00 0.00 79 1010.4
20260508235114 60 334 0.0 0.0 0.00 0.00 0.00 77 1010.3
20260508234612 60 337 0.0 0.0 0.00 0.00 0.00 76 1010.2
20260508234108 61 338 0.0 0.0 0.00 0.00 0.00 75 1010.0
20260508233607 61 0 0.0 0.0 0.00 0.00 0.00 74 1010.2
20260508233104 61 345 0.0 0.0 0.00 0.00 0.00 74 1009.8
20260508232601 61 7 0.0 0.0 0.00 0.00 0.00 74 1009.9
20260508232058 61 2 0.0 0.0 0.00 0.00 0.00 73 1009.8
20260508231556 60 326 0.0 0.0 0.00 0.00 0.00 75 1010.0
20260508231052 61 324 0.0 0.0 0.00 0.00 0.00 74 1010.1
20260508230549 61 312 0.0 0.0 0.00 0.00 0.00 72 1010.1
20260508230046 61 306 0.0 0.0 0.00 0.00 0.00 73 1010.3
20260508225543 61 283 0.0 0.0 0.00 0.00 0.00 71 1010.1
20260508225040 62 310 0.0 0.0 0.00 0.00 0.00 69 1010.0
20260508224538 62 315 0.0 0.0 0.00 0.00 0.00 69 1010.1
20260508224035 62 315 0.0 0.0 0.00 0.00 0.00 68 1010.0
20260508223532 62 312 0.0 0.0 0.00 0.00 0.00 68 1010.1
20260508223029 63 318 0.0 0.0 0.00 0.00 0.00 67 1009.8
20260508222527 63 322 0.0 0.0 0.00 0.00 0.00 65 1009.8
20260508222024 63 319 0.0 0.0 0.00 0.00 0.00 66 1010.0
20260508221520 63 334 0.0 0.0 0.00 0.00 0.00 64 1010.0
20260508221016 63 351 0.0 0.0 0.00 0.00 0.00 61 1009.9
20260508220513 63 323 0.0 0.0 0.00 0.00 0.00 61 1010.1
20260508220009 64 323 0.0 0.0 0.00 0.00 0.00 61 1009.9
20260508215506 64 306 0.0 0.0 0.00 0.00 0.00 60 1010.1
20260508215003 64 308 0.0 0.0 0.00 0.00 0.00 61 1010.0
20260508214500 64 314 0.0 0.0 0.00 0.00 0.00 61 1010.0
20260508213955 64 306 0.0 0.0 0.00 0.00 0.00 58 1010.0
20260508213454 65 312 0.0 0.0 0.00 0.00 0.00 57 1009.8
20260508212949 65 265 0.0 0.0 0.00 0.00 0.00 56 1010.0
20260508212446 65 251 0.0 0.0 0.00 0.00 0.00 53 1010.1
20260508211942 65 227 0.0 0.0 0.00 0.00 0.00 58 1010.0
20260508211437 65 228 0.0 0.0 0.00 0.00 0.00 55 1010.1
20260508210935 65 248 0.0 0.0 0.00 0.00 0.00 57 1010.1
20260508210431 65 207 0.0 2.6 0.00 0.00 0.00 55 1010.0
20260508205927 65 233 0.0 0.0 0.00 0.00 0.00 56 1010.1
20260508205425 65 233 0.9 4.3 0.00 0.00 0.00 54 1010.2
20260508204921 65 242 0.0 0.0 0.00 0.00 0.00 55 1010.0
20260508204419 65 227 0.0 0.0 0.00 0.00 0.00 54 1010.2
20260508203914 65 243 0.0 0.0 0.00 0.00 0.00 54 1010.6
20260508203411 65 236 0.0 4.3 0.00 0.00 0.00 56 1010.6
20260508202906 65 253 2.6 5.2 0.00 0.00 0.00 53 1010.7
20260508202404 66 234 3.5 6.1 0.00 0.00 0.00 52 1010.7
20260508201901 66 243 3.5 5.2 0.00 0.00 0.00 51 1010.8
20260508201357 66 237 5.2 7.0 0.00 0.00 0.00 50 1010.8
20260508200854 66 235 6.1 7.0 0.00 0.00 0.00 49 1011.1
20260508200351 66 263 3.5 7.0 0.00 0.00 0.00 51 1011.0
20260508195846 66 201 4.3 6.1 0.00 0.00 0.00 50 1011.1
20260508195343 66 217 3.5 7.0 0.00 0.00 0.00 50 1011.2
20260508194839 66 211 6.1 7.0 0.00 0.00 0.00 50 1011.1
20260508194337 66 250 5.2 7.8 0.00 0.00 0.00 49 1011.3
20260508193834 66 235 7.8 9.6 0.00 0.00 0.00 49 1011.1
20260508193330 66 240 6.1 9.6 0.00 0.00 0.00 49 1011.4
20260508192827 66 247 7.8 11.3 0.00 0.00 0.00 49 1011.3
20260508192324 67 248 7.8 11.3 0.00 0.00 0.00 49 1011.1
20260508191821 67 237 4.3 7.0 0.00 0.00 0.00 52 1011.2
20260508191319 67 245 8.7 11.3 0.00 0.00 0.00 50 1011.4
20260508190815 66 236 5.2 7.8 0.00 0.00 0.00 52 1011.4
20260508190311 66 286 4.3 7.0 0.00 0.00 0.00 51 1011.4
20260508185808 67 230 7.8 11.3 0.00 0.00 0.00 50 1011.5
20260508185306 68 242 4.3 7.8 0.00 0.00 0.00 52 1011.6
20260508184802 69 232 7.0 9.6 0.00 0.00 0.00 49 1011.7
20260508184300 68 276 1.7 8.7 0.00 0.00 0.00 50 1011.7
20260508183756 68 226 4.3 7.8 0.00 0.00 0.00 51 1011.6
20260508183253 68 218 3.5 7.8 0.00 0.00 0.00 53 1011.7
20260508182749 68 234 5.2 8.7 0.00 0.00 0.00 50 1012.1
20260508182246 68 247 5.2 8.7 0.00 0.00 0.00 56 1012.1
20260508181741 69 230 6.1 8.7 0.00 0.00 0.00 52 1012.2
20260508181238 68 245 6.1 7.0 0.00 0.00 0.00 50 1012.2
20260508180735 67 254 7.8 8.7 0.00 0.00 0.00 54 1012.2
20260508180232 67 237 8.7 13.0 0.00 0.00 0.00 52 1012.2
20260508175729 66 225 9.6 11.3 0.00 0.00 0.00 50 1012.6
20260508175225 65 235 7.0 9.6 0.00 0.00 0.00 54 1012.6
20260508174723 65 243 8.7 11.3 0.00 0.00 0.00 52 1012.6
20260508174221 65 247 6.1 7.0 0.00 0.00 0.00 54 1012.8
20260508173716 65 250 7.8 8.7 0.00 0.00 0.00 51 1013.0
20260508173212 65 252 6.1 8.7 0.00 0.00 0.00 53 1013.0
20260508172710 65 227 3.5 7.0 0.00 0.00 0.00 54 1013.0
20260508172207 64 264 7.8 9.6 0.00 0.00 0.00 54 1013.0
20260508171703 64 259 4.3 8.7 0.00 0.00 0.00 55 1013.3
20260508171159 63 232 7.8 9.6 0.00 0.00 0.00 55 1013.1
20260508170656 63 264 4.3 8.7 0.00 0.00 0.00 56 1013.3
20260508170154 64 233 6.1 9.6 0.00 0.00 0.00 56 1013.5
20260508165651 64 247 7.8 13.9 0.00 0.00 0.00 53 1013.5
20260508165148 64 268 7.0 9.6 0.00 0.00 0.00 52 1013.7
20260508164644 64 213 8.7 13.0 0.00 0.00 0.00 53 1013.6
20260508164141 65 218 9.6 13.0 0.00 0.00 0.00 54 1013.6
20260508163639 65 231 7.8 11.3 0.00 0.00 0.00 53 1013.7
20260508163136 65 208 7.0 11.3 0.00 0.00 0.00 51 1013.9
20260508162632 66 212 9.6 13.0 0.00 0.00 0.00 52 1013.9
20260508162129 66 241 2.6 7.8 0.00 0.00 0.00 55 1013.9
20260508161626 66 239 5.2 8.7 0.00 0.00 0.00 54 1014.0
20260508161123 66 239 7.8 13.0 0.00 0.00 0.00 56 1013.9
20260508160621 66 218 7.0 9.6 0.00 0.00 0.00 52 1014.1
20260508160118 66 203 7.0 9.6 0.00 0.00 0.00 55 1014.0
20260508155610 65 257 5.2 9.6 0.00 0.00 0.00 57 1014.1
20260508155107 65 234 5.2 9.6 0.00 0.00 0.00 55 1014.2
20260508154604 64 235 8.7 13.0 0.00 0.00 0.00 53 1014.2
20260508154101 64 236 8.7 12.2 0.00 0.00 0.00 53 1014.1
20260508153558 64 263 8.7 12.2 0.00 0.00 0.00 54 1014.2
20260508153054 64 230 7.8 8.7 0.00 0.00 0.00 57 1014.2
20260508152551 64 202 10.4 13.0 0.00 0.00 0.00 54 1014.3
20260508152046 64 203 7.0 9.6 0.00 0.00 0.00 58 1014.5
20260508151543 64 198 7.0 8.7 0.00 0.00 0.00 55 1014.4
20260508151040 64 242 7.8 9.6 0.00 0.00 0.00 54 1014.4
20260508150538 63 217 7.0 9.6 0.00 0.00 0.00 58 1014.4
20260508150033 63 256 8.7 11.3 0.00 0.00 0.00 55 1014.5
20260508145530 63 224 9.6 17.4 0.00 0.00 0.00 55 1014.2
20260508145026 62 259 7.8 9.6 0.00 0.00 0.00 57 1014.5
20260508144524 62 229 12.2 14.8 0.00 0.00 0.00 53 1014.3
20260508144021 63 236 9.6 12.2 0.00 0.00 0.00 56 1014.7
20260508143519 62 223 4.3 8.7 0.00 0.00 0.00 59 1014.6
20260508143015 62 203 9.6 12.2 0.00 0.00 0.00 55 1014.6
20260508142513 61 217 7.8 9.6 0.00 0.00 0.00 55 1014.7
20260508142009 61 222 7.8 12.2 0.00 0.00 0.00 56 1014.5
20260508141505 61 214 7.8 9.6 0.00 0.00 0.00 58 1014.7
20260508141003 60 230 9.6 14.8 0.00 0.00 0.00 56 1014.9
20260508140500 60 231 7.8 11.3 0.00 0.00 0.00 58 1014.9
20260508135955 60 223 8.7 13.0 0.00 0.00 0.00 55 1015.1
20260508135452 59 225 7.8 13.9 0.00 0.00 0.00 57 1014.8
20260508134949 59 236 9.6 13.0 0.00 0.00 0.00 56 1014.8
20260508134445 59 221 9.6 11.3 0.00 0.00 0.00 57 1014.9
20260508133942 58 213 6.1 11.3 0.00 0.00 0.00 64 1015.0
20260508133439 57 193 5.2 7.0 0.00 0.00 0.00 66 1014.9
20260508132936 56 185 7.0 8.7 0.00 0.00 0.00 65 1015.1
20260508132434 56 206 6.1 7.0 0.00 0.00 0.00 64 1015.0
20260508131931 56 237 5.2 7.0 0.00 0.00 0.00 67 1015.0
20260508131426 55 214 4.3 7.0 0.00 0.00 0.00 67 1015.0
20260508130923 54 205 5.2 7.8 0.00 0.00 0.00 68 1015.1
20260508130420 54 210 6.1 8.7 0.00 0.00 0.00 67 1014.8
20260508125916 54 204 6.1 8.7 0.00 0.00 0.00 67 1015.1
20260508125412 53 219 5.2 6.1 0.00 0.00 0.00 70 1014.9
20260508124910 52 231 4.3 6.1 0.00 0.00 0.00 71 1014.9
20260508124407 52 199 5.2 6.1 0.00 0.00 0.00 70 1014.8
20260508123905 51 215 5.2 7.0 0.00 0.00 0.00 70 1014.8
20260508123403 51 194 4.3 7.0 0.00 0.00 0.00 72 1014.8
20260508122859 50 210 4.3 6.1 0.00 0.00 0.00 73 1014.7
20260508122356 50 212 4.3 6.1 0.00 0.00 0.00 74 1014.7
20260508121854 50 199 2.6 4.3 0.00 0.00 0.00 74 1014.5
20260508121352 49 209 3.5 5.2 0.00 0.00 0.00 74 1014.8
20260508120849 49 211 4.3 6.1 0.00 0.00 0.00 73 1014.9
20260508120347 49 203 2.6 4.3 0.00 0.00 0.00 75 1014.9
20260508115844 48 219 3.5 7.0 0.00 0.00 0.00 75 1014.6
20260508115341 48 214 3.5 5.2 0.00 0.00 0.00 74 1014.6
20260508114838 48 207 2.6 5.2 0.00 0.00 0.00 76 1014.6
20260508114335 48 209 4.3 6.1 0.00 0.00 0.00 76 1014.6
20260508113832 47 210 3.5 5.2 0.00 0.00 0.00 77 1014.7
20260508113330 46 207 3.5 4.3 0.00 0.00 0.00 78 1014.8
20260508112826 46 218 2.6 4.3 0.00 0.00 0.00 79 1014.5
20260508112323 46 217 2.6 2.6 0.00 0.00 0.00 79 1014.6
20260508111820 46 216 2.6 4.3 0.00 0.00 0.00 78 1014.4
20260508111317 46 219 2.6 4.3 0.00 0.00 0.00 78 1014.6
20260508110814 46 222 3.5 4.3 0.00 0.00 0.00 78 1014.4
20260508110312 46 225 2.6 4.3 0.00 0.00 0.00 78 1014.2
20260508105811 46 213 4.3 5.2 0.00 0.00 0.00 78 1014.4
20260508105308 46 232 3.5 5.2 0.00 0.00 0.00 77 1014.2
20260508104805 46 218 3.5 5.2 0.00 0.00 0.00 78 1014.1
20260508104302 46 217 2.6 5.2 0.00 0.00 0.00 77 1014.3
20260508103759 46 207 2.6 2.6 0.00 0.00 0.00 78 1014.5
20260508103256 46 217 2.6 4.3 0.00 0.00 0.00 78 1014.4
20260508102754 46 219 3.5 4.3 0.00 0.00 0.00 78 1014.2
20260508102252 46 215 2.6 4.3 0.00 0.00 0.00 78 1014.4
20260508101749 46 222 0.0 0.0 0.00 0.00 0.00 77 1014.2
20260508101246 46 213 0.0 0.0 0.00 0.00 0.00 77 1014.4
20260508100743 46 216 0.0 0.0 0.00 0.00 0.00 77 1014.5
20260508100241 46 223 0.0 0.0 0.00 0.00 0.00 77 1014.2
20260508095737 46 222 0.0 0.0 0.00 0.00 0.00 77 1014.3
20260508095235 46 192 0.0 0.0 0.00 0.00 0.00 76 1014.4
20260508094731 46 211 0.0 0.0 0.00 0.00 0.00 76 1014.5
20260508094228 46 212 0.0 0.0 0.00 0.00 0.00 75 1014.5
20260508093726 46 202 0.0 0.0 0.00 0.00 0.00 75 1014.4
20260508093224 46 210 0.0 0.0 0.00 0.00 0.00 75 1014.4
20260508092720 46 214 0.0 0.0 0.00 0.00 0.00 76 1014.5
20260508092218 46 247 0.0 0.0 0.00 0.00 0.00 77 1014.4
20260508091716 47 224 0.0 0.0 0.00 0.00 0.00 78 1014.3
20260508091213 46 227 0.0 0.0 0.00 0.00 0.00 77 1014.4
20260508090711 46 219 0.0 0.0 0.00 0.00 0.00 78 1014.4
20260508090208 46 209 0.0 0.0 0.00 0.00 0.00 79 1014.3
20260508085703 46 211 0.0 0.0 0.00 0.00 0.00 79 1014.5
20260508085201 46 205 0.0 0.0 0.00 0.00 0.00 79 1014.4
20260508084657 45 196 0.0 0.0 0.00 0.00 0.00 78 1014.3
20260508084155 45 206 0.0 0.0 0.00 0.00 0.00 77 1014.4
20260508083652 45 251 0.0 0.0 0.00 0.00 0.00 75 1014.5
20260508083149 45 337 0.0 0.0 0.00 0.00 0.00 74 1014.7
20260508082644 46 32 0.0 0.0 0.00 0.00 0.00 74 1014.5
20260508082141 46 30 0.0 0.0 0.00 0.00 0.00 75 1014.3
20260508081634 46 43 0.0 0.9 0.00 0.00 0.00 76 1014.8
20260508081130 46 324 0.0 0.0 0.00 0.00 0.00 73 1014.5
20260508080627 46 208 0.0 0.0 0.00 0.00 0.00 74 1014.3